Torna al catalogo

OPS 4682 DEB

AttivoPO
NORAD 14717·DEBRIS·🇺🇸 United States

Lanciato Apr 3, 1965 da Vandenberg Space Force Base

Loading…

Prossimi Passaggi (prossime 24 ore)

TLE

AggiornatoSource: Space-Track

Epoca: Sep 14, 2026, 13:06 UTC

1 14717U 65027Q   26257.54612449  .00000101  00000-0  32127-3 0  9997
2 14717  90.2396 352.6394 0033590 205.9615 215.8499 12.97535511127671

Traccia OPS 4682 DEB in tempo reale con AllMySat

Download on the App Store